Starlink 2436

operational
NORAD ID: 48101 Int'l Des: 2021-027 Owner: SPXS Country: US Constellation: starlink
LEOCIRCULARSTARLINK_TYPE

Über Starlink 2436

Beschreibung wird geladen...

Live-Position

3D-Globus wird geladen...

Nächste Überflüge

Höhenverlauf

Altitude vs Time

uPlot chart will show altitude changes over time

Zweizeiliger Elementsatz

1 48101U 21027K 25352.64794509 -.00000123 00000-0 10651-4 0 9991
2 48101 53.0546 165.6349 0001531 102.1225 257.9936 15.06397067260346
Epoch: 18. Dez. 2025 • Age: 27 hours

Aktueller Status

Höhe 548.2 km
Geschwindigkeit 7.59 km/s
Subsatellitenpunkt 27.59°N, 173.29°E
Startdatum 7. Apr. 2021
Alter 4.7 years
Typ internet

Technische Details

Klassifizierung Payload
Masse 260.00 kg
Trockenmasse 248.00 kg
Gesamtmasse 260.00 kg
Länge 0.20 m
Durchmesser 2.80 m
Spannweite 9.00 m
Form Box + pan
Hersteller SPXS
Bus-Typ Starlink
Phasenstatus In Orbit
Besitzer/Staat SPXS/US

Große Konstellationen

Loading constellations...